Location: ????????
(48.4751°N, 37.6926°E)
Time: 13:35:33
(UTC+00:00)

COSMO-SKYMED 1 - Pass Details

Date: 20 January 2021
Orbit: 621 x 623 km, 97.9° (Epoch: 27 February)

Event Time Altitude Azimuth Distance (km) Brightness Sun altitude
Rises 14:41:46 0° 25° (NNE) 2,916 5.6 -5.6°
Reaches altitude 10° 14:44:23 10° 41° (NE) 2,003 4.6 -6.0°
Maximum altitude 14:47:48 22° 93° (E) 1,364 3.8 -6.6°
Drops below altitude 10° 14:51:12 10° 144° (SE) 1,989 5.0 -7.1°
Sets 14:53:47 0° 160° (SSE) 2,889 6.0 -7.5°
